Year,Month,Day,Hour,Minute,Value (Times are PST for temperature in C)
2015,09,13,00,00,19.20
2015,09,13,00,01,19.20
2015,09,13,00,02,19.20
2015,09,13,00,03,19.20
2015,09,13,00,04,19.20
2015,09,13,00,05,19.20
2015,09,13,00,06,19.30
2015,09,13,00,07,19.30
2015,09,13,00,08,19.40
2015,09,13,00,09,19.40
2015,09,13,00,10,19.40
2015,09,13,00,11,19.40
2015,09,13,00,12,19.40
2015,09,13,00,13,19.50
2015,09,13,00,14,19.50
2015,09,13,00,15,19.50
2015,09,13,00,16,19.50
2015,09,13,00,17,19.50
2015,09,13,00,18,19.40
2015,09,13,00,19,19.40
2015,09,13,00,20,19.40
2015,09,13,00,21,19.40
2015,09,13,00,22,19.40
2015,09,13,00,23,19.40
2015,09,13,00,24,19.40
2015,09,13,00,25,19.40
2015,09,13,00,26,19.40
2015,09,13,00,27,19.40
2015,09,13,00,28,19.40
2015,09,13,00,29,19.40
2015,09,13,00,30,19.40
2015,09,13,00,31,19.50
2015,09,13,00,32,19.50
2015,09,13,00,33,19.50
2015,09,13,00,34,19.50
2015,09,13,00,35,19.40
2015,09,13,00,36,19.40
2015,09,13,00,37,19.40
2015,09,13,00,38,19.30
2015,09,13,00,39,19.20
2015,09,13,00,40,19.10
2015,09,13,00,41,19.00
2015,09,13,00,42,18.90
2015,09,13,00,43,18.80
2015,09,13,00,44,18.80
2015,09,13,00,45,18.70
2015,09,13,00,46,18.70
2015,09,13,00,47,18.70
2015,09,13,00,48,18.70
2015,09,13,00,49,18.70
2015,09,13,00,50,18.70
2015,09,13,00,51,18.70
2015,09,13,00,52,18.70
2015,09,13,00,53,18.70
2015,09,13,00,54,18.70
2015,09,13,00,55,18.70
2015,09,13,00,56,18.70
2015,09,13,00,57,18.70
2015,09,13,00,58,18.70
2015,09,13,00,59,18.60
2015,09,13,01,00,18.60
2015,09,13,01,01,18.60
2015,09,13,01,02,18.70
2015,09,13,01,03,18.70
2015,09,13,01,04,18.70
2015,09,13,01,05,18.70
2015,09,13,01,06,18.70
2015,09,13,01,07,18.70
2015,09,13,01,08,18.70
2015,09,13,01,09,18.70
2015,09,13,01,10,18.80
2015,09,13,01,11,18.80
2015,09,13,01,12,18.80
2015,09,13,01,13,18.80
2015,09,13,01,14,18.80
2015,09,13,01,15,18.80
2015,09,13,01,16,18.70
2015,09,13,01,17,18.70
2015,09,13,01,18,18.70
2015,09,13,01,19,18.70
2015,09,13,01,20,18.70
2015,09,13,01,21,18.70
2015,09,13,01,22,18.60
2015,09,13,01,23,18.60
2015,09,13,01,24,18.60
2015,09,13,01,25,18.60
2015,09,13,01,26,18.60
2015,09,13,01,27,18.60
2015,09,13,01,28,18.50
2015,09,13,01,29,18.50
2015,09,13,01,30,18.50
2015,09,13,01,31,18.40
2015,09,13,01,32,18.40
2015,09,13,01,33,18.40
2015,09,13,01,34,18.40
2015,09,13,01,35,18.40
2015,09,13,01,36,18.40
2015,09,13,01,37,18.40
2015,09,13,01,38,18.40
2015,09,13,01,39,18.40
2015,09,13,01,40,18.40
2015,09,13,01,41,18.40
2015,09,13,01,42,18.40
2015,09,13,01,43,18.40
2015,09,13,01,44,18.40
2015,09,13,01,45,18.40
2015,09,13,01,46,18.40
2015,09,13,01,47,18.40
2015,09,13,01,48,18.40
2015,09,13,01,49,18.40
2015,09,13,01,50,18.40
2015,09,13,01,51,18.30
2015,09,13,01,52,18.30
2015,09,13,01,53,18.30
2015,09,13,01,54,18.30
2015,09,13,01,55,18.40
2015,09,13,01,56,18.30
2015,09,13,01,57,18.30
2015,09,13,01,58,18.30
2015,09,13,01,59,18.30
2015,09,13,02,00,18.30
2015,09,13,02,01,18.30
2015,09,13,02,02,18.30
2015,09,13,02,03,18.30
2015,09,13,02,04,18.30
2015,09,13,02,05,18.30
2015,09,13,02,06,18.30
2015,09,13,02,07,18.20
2015,09,13,02,08,18.30
2015,09,13,02,09,18.30
2015,09,13,02,10,18.20
2015,09,13,02,11,18.20
2015,09,13,02,12,18.20
2015,09,13,02,13,18.20
2015,09,13,02,14,18.20
2015,09,13,02,15,18.20
2015,09,13,02,16,18.20
2015,09,13,02,17,18.20
2015,09,13,02,18,18.10
2015,09,13,02,19,18.10
2015,09,13,02,20,18.10
2015,09,13,02,21,18.20
2015,09,13,02,22,18.10
2015,09,13,02,23,18.20
2015,09,13,02,24,18.20
2015,09,13,02,25,18.20
2015,09,13,02,26,18.20
2015,09,13,02,27,18.20
2015,09,13,02,28,18.20
2015,09,13,02,29,18.20
2015,09,13,02,30,18.20
2015,09,13,02,31,18.20
2015,09,13,02,32,18.20
2015,09,13,02,33,18.20
2015,09,13,02,34,18.10
2015,09,13,02,35,18.10
2015,09,13,02,36,18.10
2015,09,13,02,37,18.10
2015,09,13,02,38,18.10
2015,09,13,02,39,18.10
2015,09,13,02,40,18.10
2015,09,13,02,41,18.10
2015,09,13,02,42,18.00
2015,09,13,02,43,18.00
2015,09,13,02,44,18.00
2015,09,13,02,45,18.00
2015,09,13,02,46,18.00
2015,09,13,02,47,17.90
2015,09,13,02,48,17.90
2015,09,13,02,49,17.90
2015,09,13,02,50,17.90
2015,09,13,02,51,17.80
2015,09,13,02,52,17.80
2015,09,13,02,53,17.80
2015,09,13,02,54,17.80
2015,09,13,02,55,17.80
2015,09,13,02,56,17.80
2015,09,13,02,57,17.80
2015,09,13,02,58,17.80
2015,09,13,02,59,17.80
2015,09,13,03,00,17.80
2015,09,13,03,01,17.80
2015,09,13,03,02,17.70
2015,09,13,03,03,17.70
2015,09,13,03,04,17.70
2015,09,13,03,05,17.70
2015,09,13,03,06,17.70
2015,09,13,03,07,17.70
2015,09,13,03,08,17.70
2015,09,13,03,09,17.60
2015,09,13,03,10,17.60
2015,09,13,03,11,17.60
2015,09,13,03,12,17.60
2015,09,13,03,13,17.60
2015,09,13,03,14,17.60
2015,09,13,03,15,17.50
2015,09,13,03,16,17.50
2015,09,13,03,17,17.50
2015,09,13,03,18,17.50
2015,09,13,03,19,17.40
2015,09,13,03,20,17.40
2015,09,13,03,21,17.40
2015,09,13,03,22,17.40
2015,09,13,03,23,17.40
2015,09,13,03,24,17.40
2015,09,13,03,25,17.30
2015,09,13,03,26,17.30
2015,09,13,03,27,17.30
2015,09,13,03,28,17.20
2015,09,13,03,29,17.20
2015,09,13,03,30,17.20
2015,09,13,03,31,17.20
2015,09,13,03,32,17.20
2015,09,13,03,33,17.20
2015,09,13,03,34,17.10
2015,09,13,03,35,17.10
2015,09,13,03,36,17.10
2015,09,13,03,37,17.10
2015,09,13,03,38,17.10
2015,09,13,03,39,17.00
2015,09,13,03,40,17.00
2015,09,13,03,41,17.00
2015,09,13,03,42,16.90
2015,09,13,03,43,16.90
2015,09,13,03,44,16.90
2015,09,13,03,45,16.80
2015,09,13,03,46,16.80
2015,09,13,03,47,16.80
2015,09,13,03,48,16.80
2015,09,13,03,49,16.70
2015,09,13,03,50,16.70
2015,09,13,03,51,16.70
2015,09,13,03,52,16.70
2015,09,13,03,53,16.70
2015,09,13,03,54,16.70
2015,09,13,03,55,16.70
2015,09,13,03,56,16.70
2015,09,13,03,57,16.60
2015,09,13,03,58,16.60
2015,09,13,03,59,16.70
2015,09,13,04,00,16.70
2015,09,13,04,01,16.70
2015,09,13,04,02,16.70
2015,09,13,04,03,16.70
2015,09,13,04,04,16.70
2015,09,13,04,05,16.70
2015,09,13,04,06,16.60
2015,09,13,04,07,16.60
2015,09,13,04,08,16.60
2015,09,13,04,09,16.60
2015,09,13,04,10,16.50
2015,09,13,04,11,16.50
2015,09,13,04,12,16.50
2015,09,13,04,13,16.50
2015,09,13,04,14,16.50
2015,09,13,04,15,16.50
2015,09,13,04,16,16.50
2015,09,13,04,17,16.40
2015,09,13,04,18,16.40
2015,09,13,04,19,16.40
2015,09,13,04,20,16.40
2015,09,13,04,21,16.40
2015,09,13,04,22,16.40
2015,09,13,04,23,16.40
2015,09,13,04,24,16.40
2015,09,13,04,25,16.30
2015,09,13,04,26,16.30
2015,09,13,04,27,16.30
2015,09,13,04,28,16.30
2015,09,13,04,29,16.30
2015,09,13,04,30,16.30
2015,09,13,04,31,16.30
2015,09,13,04,32,16.30
2015,09,13,04,33,16.30
2015,09,13,04,34,16.30
2015,09,13,04,35,16.30
2015,09,13,04,36,16.30
2015,09,13,04,37,16.20
2015,09,13,04,38,16.20
2015,09,13,04,39,16.20
2015,09,13,04,40,16.20
2015,09,13,04,41,16.20
2015,09,13,04,42,16.20
2015,09,13,04,43,16.20
2015,09,13,04,44,16.20
2015,09,13,04,45,16.20
2015,09,13,04,46,16.10
2015,09,13,04,47,16.10
2015,09,13,04,48,16.10
2015,09,13,04,49,16.10
2015,09,13,04,50,16.00
2015,09,13,04,51,16.00
2015,09,13,04,52,16.00
2015,09,13,04,53,15.90
2015,09,13,04,54,15.90
2015,09,13,04,55,15.90
2015,09,13,04,56,15.80
2015,09,13,04,57,15.80
2015,09,13,04,58,15.80
2015,09,13,04,59,15.80
2015,09,13,05,00,15.80
2015,09,13,05,01,15.80
2015,09,13,05,02,15.70
2015,09,13,05,03,15.70
2015,09,13,05,04,15.70
2015,09,13,05,05,15.70
2015,09,13,05,06,15.70
2015,09,13,05,07,15.70
2015,09,13,05,08,15.70
2015,09,13,05,09,15.70
2015,09,13,05,10,15.60
2015,09,13,05,11,15.60
2015,09,13,05,12,15.60
2015,09,13,05,13,15.60
2015,09,13,05,14,15.50
2015,09,13,05,15,15.50
2015,09,13,05,16,15.50
2015,09,13,05,17,15.40
2015,09,13,05,18,15.40
2015,09,13,05,19,15.40
2015,09,13,05,20,15.40
2015,09,13,05,21,15.30
2015,09,13,05,22,15.30
2015,09,13,05,23,15.30
2015,09,13,05,24,15.30
2015,09,13,05,25,15.30
2015,09,13,05,26,15.30
2015,09,13,05,27,15.20
2015,09,13,05,28,15.20
2015,09,13,05,29,15.20
2015,09,13,05,30,15.20
2015,09,13,05,31,15.20
2015,09,13,05,32,15.10
2015,09,13,05,33,15.10
2015,09,13,05,34,15.10
2015,09,13,05,35,15.10
2015,09,13,05,36,15.10
2015,09,13,05,37,15.10
2015,09,13,05,38,15.10
2015,09,13,05,39,15.10
2015,09,13,05,40,15.10
2015,09,13,05,41,15.00
2015,09,13,05,42,15.00
2015,09,13,05,43,15.00
2015,09,13,05,44,15.00
2015,09,13,05,45,15.00
2015,09,13,05,46,15.00
2015,09,13,05,47,15.00
2015,09,13,05,48,15.00
2015,09,13,05,49,15.00
2015,09,13,05,50,15.00
2015,09,13,05,51,15.00
2015,09,13,05,52,15.00
2015,09,13,05,53,15.00
2015,09,13,05,54,15.00
2015,09,13,05,55,15.00
2015,09,13,05,56,15.00
2015,09,13,05,57,15.00
2015,09,13,05,58,15.00
2015,09,13,05,59,15.00
2015,09,13,06,00,15.00
2015,09,13,06,01,15.00
2015,09,13,06,02,15.00
2015,09,13,06,03,15.00
2015,09,13,06,04,15.00
2015,09,13,06,05,15.00
2015,09,13,06,06,15.00
2015,09,13,06,07,15.00
2015,09,13,06,08,15.00
2015,09,13,06,09,14.90
2015,09,13,06,10,15.00
2015,09,13,06,11,14.90
2015,09,13,06,12,14.90
2015,09,13,06,13,14.90
2015,09,13,06,14,14.90
2015,09,13,06,15,14.90
2015,09,13,06,16,14.90
2015,09,13,06,17,14.90
2015,09,13,06,18,14.90
2015,09,13,06,19,14.90
2015,09,13,06,20,14.90
2015,09,13,06,21,14.90
2015,09,13,06,22,14.90
2015,09,13,06,23,14.80
2015,09,13,06,24,14.80
2015,09,13,06,25,14.80
2015,09,13,06,26,14.80
2015,09,13,06,27,14.80
2015,09,13,06,28,14.80
2015,09,13,06,29,14.70
2015,09,13,06,30,14.70
2015,09,13,06,31,14.70
2015,09,13,06,32,14.70
2015,09,13,06,33,14.70
2015,09,13,06,34,14.60
2015,09,13,06,35,14.60
2015,09,13,06,36,14.60
2015,09,13,06,37,14.60
2015,09,13,06,38,14.50
2015,09,13,06,39,14.50
2015,09,13,06,40,14.50
2015,09,13,06,41,14.50
2015,09,13,06,42,14.50
2015,09,13,06,43,14.50
2015,09,13,06,44,14.50
2015,09,13,06,45,14.50
2015,09,13,06,46,14.40
2015,09,13,06,47,14.40
2015,09,13,06,48,14.40
2015,09,13,06,49,14.40
2015,09,13,06,50,14.40
2015,09,13,06,51,14.40
2015,09,13,06,52,14.30
2015,09,13,06,53,14.30
2015,09,13,06,54,14.30
2015,09,13,06,55,14.30
2015,09,13,06,56,14.30
2015,09,13,06,57,14.30
2015,09,13,06,58,14.30
2015,09,13,06,59,14.30
2015,09,13,07,00,14.30
2015,09,13,07,01,14.30
2015,09,13,07,02,14.30
2015,09,13,07,03,14.30
2015,09,13,07,04,14.30
2015,09,13,07,05,14.30
2015,09,13,07,06,14.30
2015,09,13,07,07,14.20
2015,09,13,07,08,14.20
2015,09,13,07,09,14.20
2015,09,13,07,10,14.20
2015,09,13,07,11,14.20
2015,09,13,07,12,14.20
2015,09,13,07,13,14.20
2015,09,13,07,14,14.20
2015,09,13,07,15,14.20
2015,09,13,07,16,14.20
2015,09,13,07,17,14.20
2015,09,13,07,18,14.20
2015,09,13,07,19,14.20
2015,09,13,07,20,14.20
2015,09,13,07,21,14.20
2015,09,13,07,22,14.20
2015,09,13,07,23,14.20
2015,09,13,07,24,14.20
2015,09,13,07,25,14.20
2015,09,13,07,26,14.20
2015,09,13,07,27,14.20
2015,09,13,07,28,14.20
2015,09,13,07,29,14.20
2015,09,13,07,30,14.20
2015,09,13,07,31,14.20
2015,09,13,07,32,14.10
2015,09,13,07,33,14.10
2015,09,13,07,34,14.10
2015,09,13,07,35,14.10
2015,09,13,07,36,14.10
2015,09,13,07,37,14.10
2015,09,13,07,38,14.10
2015,09,13,07,39,14.10
2015,09,13,07,40,14.10
2015,09,13,07,41,14.00
2015,09,13,07,42,14.00
2015,09,13,07,43,14.00
2015,09,13,07,44,14.00
2015,09,13,07,45,14.00
2015,09,13,07,46,14.00
2015,09,13,07,47,13.90
2015,09,13,07,48,13.90
2015,09,13,07,49,13.90
2015,09,13,07,50,13.90
2015,09,13,07,51,13.90
2015,09,13,07,52,13.90
2015,09,13,07,53,13.90
2015,09,13,07,54,14.00
2015,09,13,07,55,14.00
2015,09,13,07,56,14.00
2015,09,13,07,57,14.10
2015,09,13,07,58,14.10
2015,09,13,07,59,14.10
2015,09,13,08,00,14.10
2015,09,13,08,01,14.10
2015,09,13,08,02,14.10
2015,09,13,08,03,14.10
2015,09,13,08,04,14.20
2015,09,13,08,05,14.20
2015,09,13,08,06,14.20
2015,09,13,08,07,14.20
2015,09,13,08,08,14.20
2015,09,13,08,09,14.20
2015,09,13,08,10,14.20
2015,09,13,08,11,14.20
2015,09,13,08,12,14.20
2015,09,13,08,13,14.30
2015,09,13,08,14,14.30
2015,09,13,08,15,14.30
2015,09,13,08,16,14.30
2015,09,13,08,17,14.30
2015,09,13,08,18,14.30
2015,09,13,08,19,14.30
2015,09,13,08,20,14.30
2015,09,13,08,21,14.30
2015,09,13,08,22,14.30
2015,09,13,08,23,14.40
2015,09,13,08,24,14.40
2015,09,13,08,25,14.40
2015,09,13,08,26,14.40
2015,09,13,08,27,14.40
2015,09,13,08,28,14.50
2015,09,13,08,29,14.50
2015,09,13,08,30,14.50
2015,09,13,08,31,14.60
2015,09,13,08,32,14.60
2015,09,13,08,33,14.70
2015,09,13,08,34,14.70
2015,09,13,08,35,14.70
2015,09,13,08,36,14.80
2015,09,13,08,37,14.80
2015,09,13,08,38,14.90
2015,09,13,08,39,15.00
2015,09,13,08,40,15.00
2015,09,13,08,41,15.10
2015,09,13,08,42,15.20
2015,09,13,08,43,15.30
2015,09,13,08,44,15.30
2015,09,13,08,45,15.40
2015,09,13,08,46,15.40
2015,09,13,08,47,15.40
2015,09,13,08,48,15.50
2015,09,13,08,49,15.60
2015,09,13,08,50,15.60
2015,09,13,08,51,15.60
2015,09,13,08,52,15.60
2015,09,13,08,53,15.70
2015,09,13,08,54,15.70
2015,09,13,08,55,15.70
2015,09,13,08,56,15.70
2015,09,13,08,57,15.70
2015,09,13,08,58,15.70
2015,09,13,08,59,15.70
2015,09,13,09,00,15.70
2015,09,13,09,01,15.70
2015,09,13,09,02,15.80
2015,09,13,09,03,15.80
2015,09,13,09,04,15.80
2015,09,13,09,05,15.90
2015,09,13,09,06,15.90
2015,09,13,09,07,16.00
2015,09,13,09,08,16.00
2015,09,13,09,09,16.10
2015,09,13,09,10,16.10
2015,09,13,09,11,16.10
2015,09,13,09,12,16.10
2015,09,13,09,13,16.20
2015,09,13,09,14,16.20
2015,09,13,09,15,16.20
2015,09,13,09,16,16.20
2015,09,13,09,17,16.20
2015,09,13,09,18,16.20
2015,09,13,09,19,16.30
2015,09,13,09,20,16.30
2015,09,13,09,21,16.30
2015,09,13,09,22,16.30
2015,09,13,09,23,16.40
2015,09,13,09,24,16.40
2015,09,13,09,25,16.50
2015,09,13,09,26,16.50
2015,09,13,09,27,16.50
2015,09,13,09,28,16.60
2015,09,13,09,29,16.60
2015,09,13,09,30,16.60
2015,09,13,09,31,16.70
2015,09,13,09,32,16.70
2015,09,13,09,33,16.70
2015,09,13,09,34,16.80
2015,09,13,09,35,16.80
2015,09,13,09,36,16.90
2015,09,13,09,37,16.90
2015,09,13,09,38,16.90
2015,09,13,09,39,16.90
2015,09,13,09,40,16.90
2015,09,13,09,41,16.90
2015,09,13,09,42,17.00
2015,09,13,09,43,17.00
2015,09,13,09,44,17.10
2015,09,13,09,45,17.10
2015,09,13,09,46,17.20
2015,09,13,09,47,17.20
2015,09,13,09,48,17.20
2015,09,13,09,49,17.20
2015,09,13,09,50,17.30
2015,09,13,09,51,17.30
2015,09,13,09,52,17.30
2015,09,13,09,53,17.30
2015,09,13,09,54,17.30
2015,09,13,09,55,17.30
2015,09,13,09,56,17.40
2015,09,13,09,57,17.40
2015,09,13,09,58,17.40
2015,09,13,09,59,17.40
2015,09,13,10,00,17.40
2015,09,13,10,01,17.40
2015,09,13,10,02,17.40
2015,09,13,10,03,17.50
2015,09,13,10,04,17.60
2015,09,13,10,05,17.60
2015,09,13,10,06,17.70
2015,09,13,10,07,17.70
2015,09,13,10,08,17.70
2015,09,13,10,09,17.70
2015,09,13,10,10,17.70
2015,09,13,10,11,17.70
2015,09,13,10,12,17.80
2015,09,13,10,13,17.80
2015,09,13,10,14,17.80
2015,09,13,10,15,17.90
2015,09,13,10,16,17.90
2015,09,13,10,17,17.90
2015,09,13,10,18,17.90
2015,09,13,10,19,17.90
2015,09,13,10,20,18.00
2015,09,13,10,21,18.00
2015,09,13,10,22,18.10
2015,09,13,10,23,18.10
2015,09,13,10,24,18.10
2015,09,13,10,25,18.10
2015,09,13,10,26,18.00
2015,09,13,10,27,17.90
2015,09,13,10,28,17.90
2015,09,13,10,29,17.80
2015,09,13,10,30,17.70
2015,09,13,10,31,17.70
2015,09,13,10,32,17.70
2015,09,13,10,33,17.80
2015,09,13,10,34,17.80
2015,09,13,10,35,17.90
2015,09,13,10,36,17.90
2015,09,13,10,37,17.90
2015,09,13,10,38,17.90
2015,09,13,10,39,17.90
2015,09,13,10,40,18.00
2015,09,13,10,41,18.10
2015,09,13,10,42,18.10
2015,09,13,10,43,18.20
2015,09,13,10,44,18.20
2015,09,13,10,45,18.20
2015,09,13,10,46,18.30
2015,09,13,10,47,18.30
2015,09,13,10,48,18.30
2015,09,13,10,49,18.30
2015,09,13,10,50,18.40
2015,09,13,10,51,18.40
2015,09,13,10,52,18.40
2015,09,13,10,53,18.40
2015,09,13,10,54,18.40
2015,09,13,10,55,18.30
2015,09,13,10,56,18.30
2015,09,13,10,57,18.30
2015,09,13,10,58,18.30
2015,09,13,10,59,18.40
2015,09,13,11,00,18.30
2015,09,13,11,01,18.30
2015,09,13,11,02,18.30
2015,09,13,11,03,18.20
2015,09,13,11,04,18.20
2015,09,13,11,05,18.20
2015,09,13,11,06,18.10
2015,09,13,11,07,18.10
2015,09,13,11,08,18.10
2015,09,13,11,09,18.10
2015,09,13,11,10,18.10
2015,09,13,11,11,18.10
2015,09,13,11,12,18.10
2015,09,13,11,13,18.00
2015,09,13,11,14,18.00
2015,09,13,11,15,17.90
2015,09,13,11,16,17.90
2015,09,13,11,17,17.90
2015,09,13,11,18,17.90
2015,09,13,11,19,17.80
2015,09,13,11,20,17.80
2015,09,13,11,21,17.70
2015,09,13,11,22,17.70
2015,09,13,11,23,17.60
2015,09,13,11,24,17.60
2015,09,13,11,25,17.60
2015,09,13,11,26,17.70
2015,09,13,11,27,17.70
2015,09,13,11,28,17.70
2015,09,13,11,29,17.80
2015,09,13,11,30,17.80
2015,09,13,11,31,17.80
2015,09,13,11,32,17.80
2015,09,13,11,33,17.80
2015,09,13,11,34,17.80
2015,09,13,11,35,17.80
2015,09,13,11,36,17.80
2015,09,13,11,37,17.80
2015,09,13,11,38,17.90
2015,09,13,11,39,17.90
2015,09,13,11,40,17.90
2015,09,13,11,41,17.90
2015,09,13,11,42,18.00
2015,09,13,11,43,18.00
2015,09,13,11,44,18.00
2015,09,13,11,45,18.00
2015,09,13,11,46,18.00
2015,09,13,11,47,18.10
2015,09,13,11,48,18.10
2015,09,13,11,49,18.10
2015,09,13,11,50,18.10
2015,09,13,11,51,18.00
2015,09,13,11,52,18.00
2015,09,13,11,53,18.00
2015,09,13,11,54,17.90
2015,09,13,11,55,17.90
2015,09,13,11,56,17.90
2015,09,13,11,57,17.80
2015,09,13,11,58,17.80
2015,09,13,11,59,17.80
2015,09,13,12,00,17.80
2015,09,13,12,01,17.80
2015,09,13,12,02,18.00
2015,09,13,12,03,18.10
2015,09,13,12,04,18.20
2015,09,13,12,05,18.20
2015,09,13,12,06,18.30
2015,09,13,12,07,18.30
2015,09,13,12,08,18.40
2015,09,13,12,09,18.50
2015,09,13,12,10,18.60
2015,09,13,12,11,18.70
2015,09,13,12,12,18.80
2015,09,13,12,13,18.80
2015,09,13,12,14,18.80
2015,09,13,12,15,18.80
2015,09,13,12,16,18.80
2015,09,13,12,17,18.80
2015,09,13,12,18,18.80
2015,09,13,12,19,18.80
2015,09,13,12,20,18.70
2015,09,13,12,21,18.70
2015,09,13,12,22,18.60
2015,09,13,12,23,18.60
2015,09,13,12,24,18.50
2015,09,13,12,25,18.50
2015,09,13,12,26,18.60
2015,09,13,12,27,18.60
2015,09,13,12,28,18.60
2015,09,13,12,29,18.70
2015,09,13,12,30,18.80
2015,09,13,12,31,18.80
2015,09,13,12,32,18.80
2015,09,13,12,33,18.80
2015,09,13,12,34,18.90
2015,09,13,12,35,18.90
2015,09,13,12,36,18.90
2015,09,13,12,37,18.90
2015,09,13,12,38,18.90
2015,09,13,12,39,19.00
2015,09,13,12,40,19.10
2015,09,13,12,41,19.10
2015,09,13,12,42,19.10
2015,09,13,12,43,19.10
2015,09,13,12,44,19.10
2015,09,13,12,45,19.00
2015,09,13,12,46,19.00
2015,09,13,12,47,19.10
2015,09,13,12,48,19.00
2015,09,13,12,49,19.00
2015,09,13,12,50,19.10
2015,09,13,12,51,19.10
2015,09,13,12,52,19.20
2015,09,13,12,53,19.20
2015,09,13,12,54,19.20
2015,09,13,12,55,19.20
2015,09,13,12,56,19.20
2015,09,13,12,57,19.30
2015,09,13,12,58,19.30
2015,09,13,12,59,19.40
2015,09,13,13,00,19.40
2015,09,13,13,01,19.40
2015,09,13,13,02,19.50
2015,09,13,13,03,19.60
2015,09,13,13,04,19.60
2015,09,13,13,05,19.60
2015,09,13,13,06,19.60
2015,09,13,13,07,19.60
2015,09,13,13,08,19.60
2015,09,13,13,09,19.60
2015,09,13,13,10,19.60
2015,09,13,13,11,19.60
2015,09,13,13,12,19.60
2015,09,13,13,13,19.60
2015,09,13,13,14,19.70
2015,09,13,13,15,19.70
2015,09,13,13,16,19.80
2015,09,13,13,17,19.70
2015,09,13,13,18,19.70
2015,09,13,13,19,19.60
2015,09,13,13,20,19.60
2015,09,13,13,21,19.70
2015,09,13,13,22,19.70
2015,09,13,13,23,19.70
2015,09,13,13,24,19.70
2015,09,13,13,25,19.60
2015,09,13,13,26,19.60
2015,09,13,13,27,19.50
2015,09,13,13,28,19.50
2015,09,13,13,29,19.40
2015,09,13,13,30,19.50
2015,09,13,13,31,19.60
2015,09,13,13,32,19.70
2015,09,13,13,33,19.80
2015,09,13,13,34,20.00
2015,09,13,13,35,20.10
2015,09,13,13,36,20.20
2015,09,13,13,37,20.20
2015,09,13,13,38,20.20
2015,09,13,13,39,20.20
2015,09,13,13,40,20.20
2015,09,13,13,41,20.10
2015,09,13,13,42,20.10
2015,09,13,13,43,20.10
2015,09,13,13,44,20.10
2015,09,13,13,45,20.20
2015,09,13,13,46,20.30
2015,09,13,13,47,20.40
2015,09,13,13,48,20.30
2015,09,13,13,49,20.30
2015,09,13,13,50,20.20
2015,09,13,13,51,20.20
2015,09,13,13,52,20.20
2015,09,13,13,53,20.20
2015,09,13,13,54,20.20
2015,09,13,13,55,20.20
2015,09,13,13,56,20.20
2015,09,13,13,57,20.10
2015,09,13,13,58,20.10
2015,09,13,13,59,20.20
2015,09,13,14,00,20.20
2015,09,13,14,01,20.30
2015,09,13,14,02,20.30
2015,09,13,14,03,20.40
2015,09,13,14,04,20.40
2015,09,13,14,05,20.40
2015,09,13,14,06,20.30
2015,09,13,14,07,20.20
2015,09,13,14,08,20.20
2015,09,13,14,09,20.10
2015,09,13,14,10,20.10
2015,09,13,14,11,20.20
2015,09,13,14,12,20.30
2015,09,13,14,13,20.40
2015,09,13,14,14,20.50
2015,09,13,14,15,20.40
2015,09,13,14,16,20.40
2015,09,13,14,17,20.40
2015,09,13,14,18,20.40
2015,09,13,14,19,20.40
2015,09,13,14,20,20.30
2015,09,13,14,21,20.30
2015,09,13,14,22,20.20
2015,09,13,14,23,20.20
2015,09,13,14,24,20.20
2015,09,13,14,25,20.20
2015,09,13,14,26,20.20
2015,09,13,14,27,20.20
2015,09,13,14,28,20.20
2015,09,13,14,29,20.40
2015,09,13,14,30,20.50
2015,09,13,14,31,20.50
2015,09,13,14,32,20.50
2015,09,13,14,33,20.40
2015,09,13,14,34,20.40
2015,09,13,14,35,20.40
2015,09,13,14,36,20.30
2015,09,13,14,37,20.30
2015,09,13,14,38,20.30
2015,09,13,14,39,20.40
2015,09,13,14,40,20.30
2015,09,13,14,41,20.30
2015,09,13,14,42,20.30
2015,09,13,14,43,20.20
2015,09,13,14,44,20.20
2015,09,13,14,45,20.20
2015,09,13,14,46,20.20
2015,09,13,14,47,20.20
2015,09,13,14,48,20.20
2015,09,13,14,49,20.20
2015,09,13,14,50,20.20
2015,09,13,14,51,20.20
2015,09,13,14,52,20.20
2015,09,13,14,53,20.20
2015,09,13,14,54,20.20
2015,09,13,14,55,20.10
2015,09,13,14,56,20.20
2015,09,13,14,57,20.20
2015,09,13,14,58,20.20
2015,09,13,14,59,20.10
2015,09,13,15,00,20.00
2015,09,13,15,01,19.90
2015,09,13,15,02,19.90
2015,09,13,15,03,20.00
2015,09,13,15,04,20.00
2015,09,13,15,05,20.00
2015,09,13,15,06,19.90
2015,09,13,15,07,19.90
2015,09,13,15,08,19.80
2015,09,13,15,09,19.80
2015,09,13,15,10,19.80
2015,09,13,15,11,19.70
2015,09,13,15,12,19.70
2015,09,13,15,13,19.70
2015,09,13,15,14,19.70
2015,09,13,15,15,19.70
2015,09,13,15,16,19.80
2015,09,13,15,17,19.80
2015,09,13,15,18,19.90
2015,09,13,15,19,19.80
2015,09,13,15,20,19.80
2015,09,13,15,21,19.70
2015,09,13,15,22,19.70
2015,09,13,15,23,19.70
2015,09,13,15,24,19.70
2015,09,13,15,25,19.80
2015,09,13,15,26,19.80
2015,09,13,15,27,19.80
2015,09,13,15,28,19.80
2015,09,13,15,29,19.80
2015,09,13,15,30,19.80
2015,09,13,15,31,19.80
2015,09,13,15,32,19.80
2015,09,13,15,33,19.80
2015,09,13,15,34,19.80
2015,09,13,15,35,19.80
2015,09,13,15,36,19.80
2015,09,13,15,37,19.90
2015,09,13,15,38,19.90
2015,09,13,15,39,20.00
2015,09,13,15,40,20.10
2015,09,13,15,41,20.20
2015,09,13,15,42,20.20
2015,09,13,15,43,20.20
2015,09,13,15,44,20.30
2015,09,13,15,45,20.30
2015,09,13,15,46,20.20
2015,09,13,15,47,20.10
2015,09,13,15,48,20.00
2015,09,13,15,49,19.90
2015,09,13,15,50,19.90
2015,09,13,15,51,19.90
2015,09,13,15,52,19.90
2015,09,13,15,53,19.80
2015,09,13,15,54,19.90
2015,09,13,15,55,19.80
2015,09,13,15,56,19.80
2015,09,13,15,57,19.80
2015,09,13,15,58,19.80
2015,09,13,15,59,19.80
2015,09,13,16,00,19.70
2015,09,13,16,01,19.70
2015,09,13,16,02,19.70
2015,09,13,16,03,19.70
2015,09,13,16,04,19.70
2015,09,13,16,05,19.70
2015,09,13,16,06,19.70
2015,09,13,16,07,19.80
2015,09,13,16,08,19.80
2015,09,13,16,09,19.80
2015,09,13,16,10,19.80
2015,09,13,16,11,19.80
2015,09,13,16,12,19.80
2015,09,13,16,13,19.80
2015,09,13,16,14,19.80
2015,09,13,16,15,19.80
2015,09,13,16,16,19.70
2015,09,13,16,17,19.70
2015,09,13,16,18,19.70
2015,09,13,16,19,19.60
2015,09,13,16,20,19.60
2015,09,13,16,21,19.50
2015,09,13,16,22,19.40
2015,09,13,16,23,19.40
2015,09,13,16,24,19.40
2015,09,13,16,25,19.40
2015,09,13,16,26,19.40
2015,09,13,16,27,19.40
2015,09,13,16,28,19.50
2015,09,13,16,29,19.50
2015,09,13,16,30,19.50
2015,09,13,16,31,19.50
2015,09,13,16,32,19.50
2015,09,13,16,33,19.50
2015,09,13,16,34,19.50
2015,09,13,16,35,19.40
2015,09,13,16,36,19.40
2015,09,13,16,37,19.40
2015,09,13,16,38,19.30
2015,09,13,16,39,19.30
2015,09,13,16,40,19.30
2015,09,13,16,41,19.20
2015,09,13,16,42,19.30
2015,09,13,16,43,19.30
2015,09,13,16,44,19.30
2015,09,13,16,45,19.30
2015,09,13,16,46,19.30
2015,09,13,16,47,19.40
2015,09,13,16,48,19.40
2015,09,13,16,49,19.40
2015,09,13,16,50,19.40
2015,09,13,16,51,19.40
2015,09,13,16,52,19.40
2015,09,13,16,53,19.50
2015,09,13,16,54,19.40
2015,09,13,16,55,19.40
2015,09,13,16,56,19.40
2015,09,13,16,57,19.30
2015,09,13,16,58,19.40
2015,09,13,16,59,19.40
2015,09,13,17,00,19.40
2015,09,13,17,01,19.40
2015,09,13,17,02,19.40
2015,09,13,17,03,19.40
2015,09,13,17,04,19.40
2015,09,13,17,05,19.40
2015,09,13,17,06,19.30
2015,09,13,17,07,19.30
2015,09,13,17,08,19.30
2015,09,13,17,09,19.40
2015,09,13,17,10,19.40
2015,09,13,17,11,19.40
2015,09,13,17,12,19.40
2015,09,13,17,13,19.40
2015,09,13,17,14,19.30
2015,09,13,17,15,19.20
2015,09,13,17,16,19.20
2015,09,13,17,17,19.20
2015,09,13,17,18,19.10
2015,09,13,17,19,19.10